When you browse on this site, cookies collect data to enhance your experience and personalize the content and advertising you see.
Visit our Privacy Policy to learn more. By continuing to use the site, you agree to this use of cookies and data.
  • In United Kingdom
  • List of Countries
  • For 7 days
  • Water Temperature
  • Satellite Maps
  • Weather Map
  • Weather Widgets
  • user-avatar
    Login

    Hourly Weather Puerto-Inirida

    Today, 16 June, Sunday

    Time Temperature Precipitation Wind Pressure Humidity
    00:00 +25°C° 1.9 mm 1 mps 751 mmHg 98%
    01:00 +23°C° 0 mm 0 mps 751 mmHg 97%
    02:00 +23°C° 1.2 mm 0 mps 751 mmHg 97%
    03:00 +22°C° 1.2 mm 0 mps 751 mmHg 98%
    04:00 +22°C° 1.2 mm 0 mps 751 mmHg 98%
    05:00 +23°C° 0.7 mm 0 mps 751 mmHg 97%
    06:00 +23°C° 0.7 mm 0 mps 752 mmHg 97%
    07:00 +24°C° 0 mm 0 mps 752 mmHg 97%
    08:00 +25°C° 0.9 mm 0 mps 752 mmHg 94%
    09:00 +28°C° 0.9 mm 1 mps 752 mmHg 91%
    10:00 +29°C° 0.9 mm 1 mps 752 mmHg 88%
    11:00 +30°C° 1.1 mm 1 mps 752 mmHg 84%
    12:00 +31°C° 1.1 mm 1 mps 751 mmHg 80%
    13:00 +31°C° 1.1 mm 1 mps 750 mmHg 76%
    14:00 +31°C° 0.3 mm 1 mps 750 mmHg 75%
    15:00 +31°C° 0.3 mm 1 mps 749 mmHg 74%
    16:00 +31°C° 0.3 mm 1 mps 749 mmHg 74%
    17:00 +30°C° 0.3 mm 1 mps 750 mmHg 80%
    18:00 +28°C° 0.3 mm 1 mps 750 mmHg 87%
    19:00 +26°C° 0.3 mm 1 mps 751 mmHg 93%
    20:00 +26°C° 0.7 mm 1 mps 751 mmHg 95%
    21:00 +26°C° 0.7 mm 1 mps 752 mmHg 96%
    22:00 +25°C° 0.7 mm 1 mps 752 mmHg 97%
    23:00 +23°C° 1.5 mm 0 mps 752 mmHg 98%

    Tomorrow, 17 June, Monday

    Time Temperature Precipitation Wind Pressure Humidity
    00:00 +23°C° 1.5 mm 0 mps 751 mmHg 98%
    01:00 +23°C° 1.5 mm 0 mps 751 mmHg 98%
    02:00 +23°C° 1.8 mm 0 mps 751 mmHg 98%
    03:00 +25°C° 1.8 mm 1 mps 751 mmHg 98%
    04:00 +25°C° 1.8 mm 1 mps 751 mmHg 99%
    05:00 +25°C° 6.1 mm 1 mps 751 mmHg 99%
    06:00 +25°C° 6.1 mm 1 mps 752 mmHg 99%
    07:00 +23°C° 6.1 mm 0 mps 753 mmHg 99%
    08:00 +23°C° 5.5 mm 0 mps 753 mmHg 99%
    09:00 +23°C° 5.5 mm 0 mps 754 mmHg 99%
    10:00 +23°C° 5.5 mm 0 mps 754 mmHg 98%
    11:00 +23°C° 1 mm 0 mps 754 mmHg 98%
    12:00 +25°C° 1 mm 1 mps 753 mmHg 98%
    13:00 +25°C° 1 mm 1 mps 753 mmHg 98%
    14:00 +25°C° 0.1 mm 1 mps 752 mmHg 98%
    15:00 +25°C° 0.1 mm 1 mps 752 mmHg 97%
    16:00 +25°C° 0.1 mm 1 mps 751 mmHg 96%
    17:00 +25°C° 0 mm 1 mps 751 mmHg 97%
    18:00 +23°C° 0 mm 0 mps 752 mmHg 97%
    19:00 +22°C° 0 mm 0 mps 752 mmHg 98%
    20:00 +22°C° 0 mm 0 mps 752 mmHg 98%
    21:00 +22°C° 0 mm 0 mps 753 mmHg 98%
    22:00 +22°C° 0 mm 0 mps 753 mmHg 98%
    23:00 +22°C° 0 mm 0 mps 753 mmHg 98%

    Day after tomorrow, 18 June, Tuesday

    Time Temperature Precipitation Wind Pressure Humidity
    00:00 +22°C° 0 mm 0 mps 753 mmHg 99%
    01:00 +21°C° 0 mm 0 mps 752 mmHg 99%
    02:00 +21°C° 0.1 mm 0 mps 752 mmHg 99%
    03:00 +21°C° 0.1 mm 0 mps 752 mmHg 99%
    04:00 +23°C° 0.1 mm 1 mps 752 mmHg 99%
    05:00 +24°C° 0.1 mm 1 mps 753 mmHg 98%
    06:00 +24°C° 0.1 mm 1 mps 753 mmHg 97%
    07:00 +25°C° 0.1 mm 1 mps 753 mmHg 97%
    08:00 +26°C° 0.2 mm 1 mps 753 mmHg 91%
    09:00 +28°C° 0.2 mm 1 mps 754 mmHg 84%
    10:00 +29°C° 0.2 mm 1 mps 754 mmHg 78%
    11:00 +29°C° 0.6 mm 1 mps 753 mmHg 80%
    12:00 +29°C° 0.6 mm 1 mps 752 mmHg 82%
    13:00 +30°C° 0.6 mm 1 mps 751 mmHg 84%
    14:00 +29°C° 0.8 mm 1 mps 750 mmHg 86%
    15:00 +29°C° 0.8 mm 1 mps 750 mmHg 88%
    16:00 +29°C° 0.8 mm 1 mps 750 mmHg 90%
    17:00 +28°C° 0.6 mm 1 mps 750 mmHg 92%
    18:00 +25°C° 0.6 mm 0 mps 750 mmHg 94%
    19:00 +24°C° 0.6 mm 0 mps 751 mmHg 97%
    20:00 +23°C° 0.1 mm 0 mps 751 mmHg 97%
    21:00 +23°C° 0.1 mm 0 mps 752 mmHg 97%
    22:00 +23°C° 0.1 mm 0 mps 753 mmHg 97%
    23:00 +23°C° 0 mm 0 mps 752 mmHg 98%

    19 June, Wednesday

    Time Temperature Precipitation Wind Pressure Humidity
    00:00 +22°C° 0 mm 0 mps 752 mmHg 98%
    01:00 +22°C° 0 mm 0 mps 751 mmHg 98%
    02:00 +22°C° 0 mm 0 mps 751 mmHg 98%
    03:00 +22°C° 0 mm 0 mps 751 mmHg 98%
    04:00 +22°C° 0 mm 0 mps 751 mmHg 98%
    05:00 +22°C° 0.1 mm 0 mps 751 mmHg 98%
    06:00 +23°C° 0.1 mm 0 mps 752 mmHg 97%
    07:00 +24°C° 0.1 mm 0 mps 752 mmHg 96%
    08:00 +25°C° 1.2 mm 0 mps 752 mmHg 94%
    09:00 +26°C° 1.2 mm 0 mps 753 mmHg 92%
    10:00 +27°C° 1.2 mm 0 mps 753 mmHg 90%
    11:00 +27°C° 1.6 mm 0 mps 752 mmHg 89%
    12:00 +28°C° 1.6 mm 0 mps 751 mmHg 87%
    13:00 +28°C° 1.6 mm 0 mps 750 mmHg 86%
    14:00 +28°C° 1.1 mm 0 mps 750 mmHg 86%
    15:00 +28°C° 1.1 mm 0 mps 749 mmHg 86%
    16:00 +28°C° 1.1 mm 0 mps 749 mmHg 86%
    17:00 +26°C° 0.2 mm 0 mps 749 mmHg 89%
    18:00 +25°C° 0.2 mm 0 mps 750 mmHg 92%
    19:00 +24°C° 0.2 mm 0 mps 750 mmHg 95%
    20:00 +24°C° 0.2 mm 0 mps 751 mmHg 95%
    21:00 +24°C° 0.2 mm 0 mps 751 mmHg 95%
    22:00 +24°C° 0.2 mm 0 mps 752 mmHg 95%
    23:00 +23°C° 0.3 mm 0 mps 751 mmHg 96%

    20 June, Thursday

    Time Temperature Precipitation Wind Pressure Humidity
    00:00 +23°C° 0.3 mm 0 mps 751 mmHg 97%
    01:00 +23°C° 0.3 mm 0 mps 751 mmHg 98%
    02:00 +22°C° 0.2 mm 0 mps 751 mmHg 98%
    03:00 +22°C° 0.2 mm 0 mps 751 mmHg 98%
    04:00 +22°C° 0.2 mm 0 mps 751 mmHg 98%
    05:00 +23°C° 0.6 mm 0 mps 752 mmHg 98%
    06:00 +23°C° 0.6 mm 0 mps 752 mmHg 97%
    07:00 +24°C° 0.6 mm 0 mps 753 mmHg 97%
    08:00 +27°C° 0.8 mm 1 mps 753 mmHg 91%
    09:00 +29°C° 0.8 mm 1 mps 753 mmHg 86%
    10:00 +30°C° 0.8 mm 1 mps 753 mmHg 80%
    11:00 +31°C° 0.3 mm 1 mps 752 mmHg 74%
    12:00 +32°C° 0.3 mm 1 mps 752 mmHg 68%
    13:00 +33°C° 0.3 mm 1 mps 751 mmHg 62%
    14:00 +31°C° 0.2 mm 0 mps 750 mmHg 65%
    15:00 +30°C° 0.2 mm 0 mps 750 mmHg 68%
    16:00 +29°C° 0.2 mm 0 mps 750 mmHg 71%
    17:00 +28°C° 0 mm 0 mps 750 mmHg 78%
    18:00 +28°C° 0 mm 1 mps 750 mmHg 84%
    19:00 +27°C° 0 mm 1 mps 751 mmHg 91%
    20:00 +26°C° 0.5 mm 1 mps 751 mmHg 93%
    21:00 +26°C° 0.5 mm 1 mps 752 mmHg 95%
    22:00 +25°C° 0.5 mm 1 mps 753 mmHg 97%
    23:00 +25°C° 0.3 mm 1 mps 752 mmHg 98%

    21 June, Friday

    Time Temperature Precipitation Wind Pressure Humidity
    00:00 +25°C° 0.3 mm 1 mps 752 mmHg 98%
    01:00 +24°C° 0.3 mm 1 mps 752 mmHg 98%
    02:00 +24°C° 0.8 mm 1 mps 752 mmHg 98%
    03:00 +24°C° 0.8 mm 1 mps 752 mmHg 99%
    04:00 +22°C° 0.8 mm 0 mps 752 mmHg 99%
    05:00 +22°C° 0 mm 0 mps 752 mmHg 98%
    06:00 +23°C° 0 mm 0 mps 752 mmHg 97%
    07:00 +23°C° 0 mm 0 mps 753 mmHg 96%
    08:00 +25°C° 0.6 mm 0 mps 753 mmHg 92%
    09:00 +28°C° 0.6 mm 1 mps 753 mmHg 87%
    10:00 +30°C° 0.6 mm 1 mps 753 mmHg 82%
    11:00 +31°C° 0.7 mm 1 mps 753 mmHg 76%
    12:00 +30°C° 0.7 mm 0 mps 752 mmHg 70%
    13:00 +31°C° 0.7 mm 0 mps 751 mmHg 64%
    14:00 +30°C° 0.2 mm 0 mps 751 mmHg 67%
    15:00 +30°C° 0.2 mm 0 mps 751 mmHg 71%
    16:00 +29°C° 0.2 mm 0 mps 750 mmHg 74%
    17:00 +27°C° 0.4 mm 0 mps 751 mmHg 81%
    18:00 +26°C° 0.4 mm 0 mps 751 mmHg 88%
    19:00 +24°C° 0.4 mm 0 mps 752 mmHg 95%
    20:00 +24°C° 0.1 mm 0 mps 752 mmHg 95%
    21:00 +23°C° 0.1 mm 0 mps 752 mmHg 95%
    22:00 +23°C° 0.1 mm 0 mps 753 mmHg 96%
    23:00 +23°C° 0.2 mm 0 mps 753 mmHg 96%
    Show more